"Period start","avg(HW err(1)/warn(2) (#))","avg(Visibility (m))","avg(Weather code (#))","avg(Precip intensity (mm/h))","min(HW err(1)/warn(2) (#))","max(HW err(1)/warn(2) (#))","std(HW err(1)/warn(2) (#))","med(HW err(1)/warn(2) (#))","min(Visibility (m))","max(Visibility (m))","std(Visibility (m))","med(Visibility (m))","min(Weather code (#))","max(Weather code (#))","std(Weather code (#))","med(Weather code (#))","min(Precip intensity (mm/h))","max(Precip intensity (mm/h))","std(Precip intensity (mm/h))","med(Precip intensity (mm/h))"
2013-09-05 00:00:00,2,2708,62,10.97,2,2,0,2,2308,3470,345,2678,61,62,0,62,7.60,13.35,1.98,11.27
2013-09-05 00:10:00,2,3685,62,10.69,2,2,0,2,3059,4426,421,3713,61,62,0,62,7.80,17.70,2.92,9.62
2013-09-05 00:20:00,2,3239,61,8.21,2,2,0,2,2306,4350,630,3350,61,62,0,61,4.90,12.20,2.41,7.58
2013-09-05 00:30:00,2,3412,61,6.47,2,2,0,2,2670,4310,530,3471,61,62,0,61,2.65,11.25,2.39,6.55
2013-09-05 00:40:00,2,3596,56,4.42,2,2,0,2,3327,3966,179,3554,52,61,4,52,3.50,4.85,0.36,4.45
2013-09-05 00:50:00,2,3585,56,5.53,2,2,0,2,3037,4085,327,3558,52,61,4,52,4.35,8.20,1.24,4.88
2013-09-05 01:00:00,2,3007,61,4.74,2,2,0,2,2418,3567,343,3004,61,61,0,61,3.70,7.45,1.12,4.45
2013-09-05 01:10:00,2,3369,58,4.49,2,2,0,2,2785,3972,365,3342,52,61,4,61,2.80,6.25,1.09,4.45
2013-09-05 01:20:00,2,3347,53,4.24,2,2,0,2,2852,3760,332,3304,52,61,3,52,2.65,5.45,0.79,4.20
2013-09-05 01:30:00,2,2915,54,4.46,2,2,0,2,2530,3481,334,2820,52,61,4,52,2.35,7.05,1.33,3.92
2013-09-05 01:40:00,2,3656,58,3.79,2,2,0,2,3057,4646,533,3530,52,61,4,61,2.10,5.05,0.90,3.90
2013-09-05 01:50:00,2,2695,56,3.15,2,2,0,2,2519,3116,203,2591,52,61,4,52,2.20,5.30,0.91,2.88
2013-09-05 02:00:00,2,3349,61,4.86,2,2,0,2,2945,4997,574,3146,61,61,0,61,2.70,6.95,1.42,4.85
2013-09-05 02:10:00,2,4847,61,6.42,2,2,0,2,4350,5258,318,4984,61,61,0,61,4.05,8.30,1.74,7.00
2013-09-05 02:20:00,2,5558,61,5.58,2,2,0,2,4454,6055,469,5642,61,61,0,61,4.35,7.25,0.85,5.55
2013-09-05 02:30:00,2,3355,61,5.57,2,2,0,2,2833,3939,351,3335,61,61,0,61,4.00,7.30,0.87,5.50
2013-09-05 02:40:00,2,2840,58,4.93,2,2,0,2,2530,3137,192,2849,52,61,4,61,3.75,6.70,0.90,5.03
2013-09-05 02:50:00,2,2807,61,4.98,2,2,0,2,2328,3097,253,2908,61,61,0,61,3.35,8.40,1.49,4.35
2013-09-05 03:00:00,2,3980,61,6.25,2,2,0,2,2872,4748,546,4092,61,61,0,61,3.70,9.55,1.63,6.33
2013-09-05 03:10:00,2,3067,58,3.49,2,2,0,2,2425,3531,390,3106,52,61,4,61,2.10,5.85,1.31,2.90
2013-09-05 03:20:00,2,2835,56,2.51,2,2,0,2,2361,3363,343,2892,52,61,4,56,1.85,4.10,0.68,2.20
2013-09-05 03:30:00,2,2298,52,2.90,2,2,0,2,1853,2728,316,2350,52,52,0,52,1.95,4.10,0.61,2.83
2013-09-05 03:40:00,2,3668,60,4.81,2,2,0,2,2878,4465,503,3770,52,61,3,61,3.65,5.80,0.60,4.78
2013-09-05 03:50:00,2,5593,61,4.51,2,2,0,2,4643,6466,557,5508,61,61,0,61,2.50,7.85,1.78,4.22
2013-09-05 04:00:00,2,5264,57,3.50,2,2,0,2,4527,6253,553,5360,52,61,4,61,2.40,4.85,0.67,3.58
2013-09-05 04:10:00,2,5498,61,4.86,2,2,0,2,4059,7613,1127,5434,61,61,0,61,2.90,9.30,1.70,4.35
2013-09-05 04:20:00,2,7473,59,1.73,2,2,0,2,4709,11944,2345,6908,52,61,4,61,0.80,3.65,0.82,1.40
2013-09-05 04:30:00,2,5466,59,2.08,2,2,0,2,4193,7334,1096,5433,52,61,4,61,1.15,4.10,0.87,2.12
2013-09-05 04:40:00,2,5182,61,3.15,2,2,0,2,3253,9226,1856,4430,61,61,0,61,2.00,4.80,0.95,3.05
2013-09-05 04:50:00,2,5271,61,4.59,2,2,0,2,3491,9772,1817,4737,61,61,0,61,2.70,6.15,0.95,4.55
2013-09-05 05:00:00,2,7702,61,6.42,2,2,0,2,3855,10759,2000,8042,61,61,0,61,5.35,7.50,0.63,6.53
2013-09-05 05:10:00,2,8772,61,7.49,2,2,0,2,6975,11748,1294,8457,61,62,0,61,4.95,10.60,1.52,7.38
2013-09-05 05:20:00,2,9668,61,6.73,2,2,0,2,7748,11639,1191,9478,61,61,0,61,4.95,8.15,1.04,6.97
2013-09-05 05:30:00,2,11139,61,6.49,2,2,0,2,9210,13684,1625,10616,61,61,0,61,4.60,8.45,1.19,6.62
2013-09-05 05:40:00,2,15949,61,3.44,2,2,0,2,12606,18988,2283,15964,61,61,0,61,2.95,5.25,0.66,3.17
2013-09-05 05:50:00,2,17688,61,6.05,2,2,0,2,14117,23379,2752,18190,61,62,0,61,3.10,10.20,1.96,6.35
2013-09-05 06:00:00,2,17778,61,6.58,2,2,0,2,16202,19697,923,17631,61,61,0,61,5.15,9.70,1.25,6.58
2013-09-05 06:10:00,2,19431,61,3.45,2,2,0,2,12792,26159,4468,19840,61,61,0,61,2.85,4.60,0.53,3.35
2013-09-05 06:20:00,2,16713,61,3.42,2,2,0,2,15263,20696,1565,16307,61,61,0,61,1.95,5.95,1.17,3.25
2013-09-05 06:30:00,2,21062,61,3.43,2,2,0,2,15670,26742,3763,20600,61,61,0,61,1.65,5.50,1.08,3.50
2013-09-05 06:40:00,2,24586,61,3.15,2,2,0,2,20843,27873,2528,25066,61,61,0,61,2.10,5.05,0.93,2.90
2013-09-05 06:50:00,2,23765,61,4.66,2,2,0,2,17065,33172,4403,24248,61,61,0,61,2.00,6.60,1.41,5.12
2013-09-05 07:00:00,2,20228,61,7.19,2,2,0,2,15371,24015,2671,21650,61,62,0,61,3.15,13.90,2.98,7.17
2013-09-05 07:10:00,2,20378,61,5.68,2,2,0,2,15748,28481,3288,19513,61,62,0,61,3.20,10.45,1.96,5.50
2013-09-05 07:20:00,2,21264,61,4.86,2,2,0,2,19173,26332,1975,20964,61,61,0,61,3.00,6.70,1.26,4.75
2013-09-05 07:30:00,2,17260,61,8.94,2,2,0,2,13358,24034,3435,16243,61,62,0,61,4.95,20.30,4.33,7.57
2013-09-05 07:40:00,2,15962,61,7.86,2,2,0,2,13352,20776,2296,15470,61,62,0,61,6.30,11.75,1.65,7.35
2013-09-05 07:50:00,2,18632,61,5.12,2,2,0,2,14665,24782,2986,18036,61,61,0,61,3.10,8.35,1.47,5.12
2013-09-05 08:00:00,2,20290,58,2.71,2,2,0,2,15665,23950,2931,20568,52,61,4,61,1.80,3.70,0.68,2.75
2013-09-05 08:10:00,2,22383,52,1.34,2,2,0,2,18922,30138,3102,22344,52,52,0,52,0.80,2.05,0.38,1.18
2013-09-05 08:20:00,2,26837,52,1.43,2,2,0,2,20097,30904,3047,26706,52,52,0,52,1.00,1.75,0.22,1.48
2013-09-05 08:30:00,2,33238,54,1.74,2,2,0,2,26419,39393,3528,33550,52,61,4,52,1.10,2.25,0.42,1.90
2013-09-05 08:40:00,2,27984,61,3.47,2,2,0,2,17871,38732,7220,26762,61,61,0,61,1.90,5.90,1.28,3.12
2013-09-05 08:50:00,2,26870,61,3.54,2,2,0,2,19632,34543,4556,26466,61,61,0,61,1.80,5.95,1.04,3.55
2013-09-05 09:00:00,2,22874,61,3.08,2,2,0,2,17148,27298,3679,23790,61,61,0,61,2.10,4.05,0.62,3.08
2013-09-05 09:10:00,2,16015,61,4.17,2,2,0,2,13501,19281,1705,16089,61,61,0,61,2.60,5.75,0.96,4.07
2013-09-05 09:20:00,2,14218,61,4.00,2,2,0,2,13069,15515,738,14458,61,61,0,61,1.40,8.75,1.82,3.80
2013-09-05 09:30:00,2,16096,61,2.96,2,2,0,2,13258,17590,1242,16440,61,61,0,61,1.90,4.50,0.93,2.65
2013-09-05 09:40:00,2,21264,61,2.72,2,2,0,2,15091,29374,4314,21261,61,61,0,61,1.40,4.95,1.03,2.75
2013-09-05 09:50:00,2,23010,61,3.08,2,2,0,2,18933,28484,3060,22643,61,61,0,61,2.05,4.55,0.76,2.85
2013-09-05 10:00:00,2,16368,61,3.04,2,2,0,2,8760,23890,4475,15448,61,61,0,61,1.95,3.70,0.56,3.10
2013-09-05 10:10:00,2,20058,59,2.04,2,2,0,2,17839,24314,1837,19596,52,61,4,61,1.10,3.10,0.66,1.93
2013-09-05 10:20:00,2,17848,56,1.88,2,2,0,2,14515,21512,2261,17582,52,61,4,56,1.00,2.55,0.45,2.00
2013-09-05 10:30:00,2,22635,54,1.50,2,2,0,2,16844,27392,2891,22135,52,61,4,52,0.80,2.75,0.59,1.35
2013-09-05 10:40:00,2,28166,57,1.49,2,2,0,2,21316,34291,4226,27469,52,61,4,61,0.75,4.30,0.96,1.18
2013-09-05 10:50:00,2,28771,58,1.37,2,2,0,2,21449,35484,4400,28920,52,61,4,61,0.85,2.20,0.38,1.30
2013-09-05 11:00:00,2,30417,58,1.06,2,2,0,2,26412,34356,2750,30622,52,61,4,61,0.80,1.50,0.23,1.00
2013-09-05 11:10:00,2,26884,61,1.43,2,2,0,2,17721,37675,6746,29000,61,61,0,61,0.50,2.50,0.61,1.45
2013-09-05 11:20:00,2,34922,61,1.35,2,2,0,2,22323,46633,6925,34592,61,61,0,61,0.70,2.10,0.50,1.20
2013-09-05 11:30:00,2,31798,58,1.10,2,2,0,2,19629,40935,6050,32938,52,61,4,61,0.40,1.60,0.37,1.10
2013-09-05 11:40:00,2,37742,61,1.55,2,2,0,2,26003,50000,7163,37572,61,61,0,61,1.00,2.40,0.41,1.43
2013-09-05 11:50:00,2,34578,58,1.28,2,2,0,2,27134,41399,4460,33624,52,61,4,61,0.65,2.20,0.42,1.25
2013-09-05 12:00:00,2,20968,52,1.09,2,2,0,2,4195,40658,14552,18850,52,52,0,52,0.70,1.65,0.30,1.05
2013-09-05 12:10:00,2,7695,52,0.86,2,2,0,2,3368,15032,3847,7487,52,52,0,52,0.50,1.20,0.25,0.82
2013-09-05 12:20:00,2,3410,52,0.67,2,2,0,2,1288,6444,1785,3404,52,52,0,52,0.45,0.90,0.17,0.65
2013-09-05 12:30:00,2,1486,52,0.74,2,2,0,2,943,2175,493,1232,52,52,0,52,0.45,1.10,0.22,0.68
2013-09-05 12:40:00,2,1456,52,0.40,2,2,0,2,1003,1936,363,1528,51,52,0,52,0.25,0.85,0.17,0.35
2013-09-05 12:50:00,2,11726,45,0.15,2,2,0,2,1530,24009,7119,11671,41,51,5,41,0.05,0.30,0.09,0.10
2013-09-05 13:00:00,2,11322,41,0.11,2,2,0,2,6406,17935,3774,11140,41,41,0,41,0.00,0.30,0.09,0.08
2013-09-05 13:10:00,2,6129,44,0.24,2,2,0,2,3432,8152,1460,6319,41,51,5,41,0.10,0.40,0.10,0.20
2013-09-05 13:20:00,2,3783,51,0.35,2,2,0,2,1805,4865,1040,3872,51,51,0,51,0.20,0.55,0.13,0.30
2013-09-05 13:30:00,2,1881,48,0.18,2,2,0,2,638,4216,1246,1780,41,51,5,51,0.05,0.45,0.13,0.15
2013-09-05 13:40:00,2,859,38,0.06,2,2,0,2,641,1195,165,817,34,41,3,41,0.00,0.15,0.06,0.05
2013-09-05 13:50:00,2,850,34,0.00,2,2,0,2,686,1093,124,814,34,34,0,34,0.00,0.00,0.00,0.00
2013-09-05 14:00:00,2,1018,31,0.00,2,2,0,2,510,1464,244,1070,30,34,2,30,0.00,0.00,0.00,0.00
2013-09-05 14:10:00,2,995,45,0.57,2,2,0,2,454,1743,413,961,34,51,7,51,0.00,1.35,0.45,0.50
2013-09-05 14:20:00,2,1380,52,0.90,2,2,0,2,971,2276,402,1155,51,52,0,52,0.65,1.30,0.19,0.83
2013-09-05 14:30:00,2,2849,52,0.55,2,2,0,2,2182,4026,635,2496,51,52,0,52,0.15,1.05,0.33,0.52
2013-09-05 14:40:00,2,7190,30,0.03,2,2,0,2,3962,12019,2775,6696,20,51,13,20,0.00,0.15,0.06,0.00
2013-09-05 14:50:00,2,9230,20,0.00,2,2,0,2,2422,16692,4778,10996,20,20,0,20,0.00,0.00,0.00,0.00
2013-09-05 15:00:00,2,7198,20,0.00,2,2,0,2,2119,18364,6282,3143,20,20,0,20,0.00,0.00,0.00,0.00
2013-09-05 15:10:00,2,28057,20,0.00,2,2,0,2,8680,44176,11334,30548,20,20,0,20,0.00,0.00,0.00,0.00
2013-09-05 15:20:00,2,48093,10,0.00,2,2,0,2,37781,50000,3851,50000,0,20,10,10,0.00,0.00,0.00,0.00
2013-09-05 15:30:00,2,50000,0,0.00,2,2,0,2,50000,50000,0,50000,0,0,0,0,0.00,0.00,0.00,0.00
2013-09-05 15:40:00,2,50000,0,0.00,2,2,0,2,50000,50000,0,50000,0,0,0,0,0.00,0.00,0.00,0.00
2013-09-05 15:50:00,2,49906,0,0.00,2,2,0,2,49064,50000,281,50000,0,0,0,0,0.00,0.00,0.00,0.00
2013-09-05 16:00:00,2,24667,18,0.07,2,2,0,2,519,50000,21069,20420,0,51,23,0,0.00,0.20,0.08,0.00
2013-09-05 16:10:00,2,1336,43,0.04,2,2,0,2,415,5069,1376,748,34,51,5,41,0.00,0.10,0.05,0.03
2013-09-05 16:20:00,1,14306,26,0.00,0,2,1,0,2187,38986,10771,10360,20,34,7,20,0.00,0.00,0.00,0.00
2013-09-05 16:30:00,0,1862,20,0.00,0,0,0,0,759,3954,1117,1312,20,20,0,20,0.00,0.00,0.00,0.00
2013-09-05 16:40:00,0,1055,25,0.00,0,0,0,0,750,1398,243,1010,20,30,5,25,0.00,0.00,0.00,0.00
2013-09-05 16:50:00,2,787,34,0.00,0,2,1,2,481,1159,213,718,30,34,1,34,0.00,0.00,0.00,0.00
2013-09-05 17:00:00,2,3169,33,0.00,2,2,0,2,768,6012,1758,2388,20,34,4,34,0.00,0.00,0.00,0.00
2013-09-05 17:10:00,2,34136,20,0.00,2,2,0,2,6560,50000,16729,42841,20,20,0,20,0.00,0.00,0.00,0.00
2013-09-05 17:20:00,2,50000,20,0.00,2,2,0,2,50000,50000,0,50000,20,20,0,20,0.00,0.00,0.00,0.00
2013-09-05 17:30:00,2,50000,20,0.00,2,2,0,2,50000,50000,0,50000,20,20,0,20,0.00,0.00,0.00,0.00
2013-09-05 17:40:00,2,50000,20,0.00,2,2,0,2,50000,50000,0,50000,20,20,0,20,0.00,0.00,0.00,0.00
2013-09-05 17:50:00,2,50000,20,0.00,2,2,0,2,50000,50000,0,50000,20,20,0,20,0.00,0.00,0.00,0.00
2013-09-05 18:00:00,2,50000,16,0.00,2,2,0,2,50000,50000,0,50000,0,20,8,20,0.00,0.00,0.00,0.00
2013-09-05 18:10:00,2,50000,0,0.00,2,2,0,2,50000,50000,0,50000,0,0,0,0,0.00,0.00,0.00,0.00
2013-09-05 18:20:00,2,50000,0,0.00,2,2,0,2,50000,50000,0,50000,0,0,0,0,0.00,0.00,0.00,0.00
2013-09-05 18:30:00,2,50000,0,0.00,2,2,0,2,50000,50000,0,50000,0,0,0,0,0.00,0.00,0.00,0.00
2013-09-05 18:40:00,2,50000,0,0.00,2,2,0,2,50000,50000,0,50000,0,0,0,0,0.00,0.00,0.00,0.00
2013-09-05 18:50:00,2,50000,0,0.00,2,2,0,2,50000,50000,0,50000,0,0,0,0,0.00,0.00,0.00,0.00
2013-09-05 19:00:00,2,50000,0,0.00,2,2,0,2,50000,50000,0,50000,0,0,0,0,0.00,0.00,0.00,0.00
2013-09-05 19:10:00,2,50000,0,0.00,2,2,0,2,50000,50000,0,50000,0,0,0,0,0.00,0.00,0.00,0.00
2013-09-05 19:20:00,2,50000,0,0.00,2,2,0,2,50000,50000,0,50000,0,0,0,0,0.00,0.00,0.00,0.00
2013-09-05 19:30:00,2,49968,0,0.00,2,2,0,2,49678,50000,97,50000,0,0,0,0,0.00,0.00,0.00,0.00
2013-09-05 19:40:00,2,50000,0,0.00,0,2,1,2,50000,50000,0,50000,0,0,0,0,0.00,0.00,0.00,0.00
2013-09-05 19:50:00,0,50000,0,0.00,0,2,1,0,50000,50000,0,50000,0,0,0,0,0.00,0.00,0.00,0.00
2013-09-05 20:00:00,2,50000,0,0.00,2,2,0,2,50000,50000,0,50000,0,0,0,0,0.00,0.00,0.00,0.00
2013-09-05 20:10:00,2,50000,0,0.00,2,2,0,2,50000,50000,0,50000,0,0,0,0,0.00,0.00,0.00,0.00
2013-09-05 20:20:00,1,50000,0,0.00,0,2,1,2,50000,50000,0,50000,0,0,0,0,0.00,0.00,0.00,0.00
2013-09-05 20:30:00,0,50000,0,0.00,0,0,0,0,50000,50000,0,50000,0,0,0,0,0.00,0.00,0.00,0.00
2013-09-05 20:40:00,0,50000,0,0.00,0,0,0,0,50000,50000,0,50000,0,0,0,0,0.00,0.00,0.00,0.00
2013-09-05 20:50:00,2,50000,0,0.00,2,2,0,2,50000,50000,0,50000,0,0,0,0,0.00,0.00,0.00,0.00
2013-09-05 21:00:00,2,50000,0,0.00,2,2,0,2,50000,50000,0,50000,0,0,0,0,0.00,0.00,0.00,0.00
2013-09-05 21:10:00,2,50000,0,0.00,2,2,0,2,50000,50000,0,50000,0,0,0,0,0.00,0.00,0.00,0.00
2013-09-05 21:20:00,2,50000,0,0.00,2,2,0,2,50000,50000,0,50000,0,0,0,0,0.00,0.00,0.00,0.00
2013-09-05 21:30:00,2,49914,0,0.00,2,2,0,2,49143,50000,257,50000,0,0,0,0,0.00,0.00,0.00,0.00
2013-09-05 21:40:00,2,50000,0,0.00,2,2,0,2,50000,50000,0,50000,0,0,0,0,0.00,0.00,0.00,0.00
2013-09-05 21:50:00,2,50000,0,0.00,2,2,0,2,50000,50000,0,50000,0,0,0,0,0.00,0.00,0.00,0.00
2013-09-05 22:00:00,2,50000,0,0.00,2,2,0,2,50000,50000,0,50000,0,0,0,0,0.00,0.00,0.00,0.00
2013-09-05 22:10:00,2,49811,0,0.00,2,2,0,2,48112,50000,566,50000,0,0,0,0,0.00,0.00,0.00,0.00
2013-09-05 22:20:00,2,47845,0,0.00,2,2,0,2,39217,50000,4096,50000,0,0,0,0,0.00,0.00,0.00,0.00
2013-09-05 22:30:00,2,48876,0,0.00,2,2,0,2,43759,50000,2205,50000,0,0,0,0,0.00,0.00,0.00,0.00
2013-09-05 22:40:00,2,49085,0,0.00,2,2,0,2,45349,50000,1400,49729,0,0,0,0,0.00,0.00,0.00,0.00
2013-09-05 22:50:00,2,48832,0,0.00,2,2,0,2,46768,50000,1255,49406,0,0,0,0,0.00,0.00,0.00,0.00
2013-09-05 23:00:00,2,46596,0,0.00,2,2,0,2,40027,50000,3572,48022,0,0,0,0,0.00,0.00,0.00,0.00
2013-09-05 23:10:00,2,48325,0,0.00,2,2,0,2,44943,50000,2017,49580,0,0,0,0,0.00,0.00,0.00,0.00
2013-09-05 23:20:00,2,49155,0,0.00,2,2,0,2,41716,50000,2480,50000,0,0,0,0,0.00,0.00,0.00,0.00
2013-09-05 23:30:00,2,48196,0,0.00,2,2,0,2,42540,50000,2599,50000,0,0,0,0,0.00,0.00,0.00,0.00
2013-09-05 23:40:00,2,48057,0,0.00,2,2,0,2,37874,50000,3907,50000,0,0,0,0,0.00,0.00,0.00,0.00
2013-09-05 23:50:00,2,47011,0,0.00,2,2,0,2,33264,50000,4962,49158,0,0,0,0,0.00,0.00,0.00,0.00
